Wind_Speed
14 13 13 12 11 11 11 10 10 10 11 11 13 12 16 14 14 13 14 14 11 11 11 10 10 9 10 11 11 11 11 10 10
13 13 13 12 12 11 11 11 11 11 12 13 15 14 15 13 12 11 10 11 8 7 8 10 10 10 10 9 9 9 8 8 9
14 13 13 13 13 12 13 13 13 13 14 15 13 12 11 12 11 12 12 10 8 7 8 9 9 9 8 8 9 7 7 9 10
14 13 14 14 15 14 14 14 15 15 14 14 13 11 11 11 10 10 10 9 8 7 7 8 9 8 6 7 7 9 10 11 11
14 15 15 16 16 14 13 12 13 13 13 12 13 12 11 11 10 10 10 9 7 6 8 8 9 13 8 6 6 8 9 9 10
15 15 15 14 13 13 12 12 12 11 12 13 10 10 9 10 11 12 10 9 8 8 9 9 12 12 10 8 7 7 8 8 9
14 14 12 12 11 11 10 10 9 10 11 11 10 9 9 9 11 12 11 10 9 8 8 8 9 11 12 10 11 11 11 11 11
12 12 11 10 9 9 8 8 9 9 9 9 8 8 8 8 9 11 12 10 10 10 9 9 9 9 9 9 9 10 10 11 11
11 10 9 8 7 7 7 7 8 8 8 8 8 7 7 7 8 10 12 10 10 10 10 10 11 10 10 9 8 9 9 10 10
11 9 8 7 6 7 8 8 7 8 8 8 8 7 7 7 7 9 10 12 11 10 10 11 11 10 10 9 9 9 10 10 11
12 10 8 7 7 7 7 7 7 8 7 8 8 6 6 7 7 8 8 9 10 10 10 10 10 9 10 10 10 10 10 11 11
11 9 8 7 7 6 6 6 6 7 7 7 7 7 7 8 8 7 6 7 7 7 9 9 9 9 11 11 11 12 12 13 14
10 9 7 7 6 6 6 6 6 7 6 7 8 8 9 9 8 7 6 6 6 7 8 10 9 10 11 12 13 14 13 16 15
10 9 8 7 6 6 5 6 5 7 6 6 8 9 10 9 7 5 4 5 7 7 8 10 12 15 13 12 14 14 14 13 14
10 9 7 6 6 4 5 6 7 7 6 5 7 8 7 7 6 5 4 5 8 9 10 12 15 17 15 15 14 14 12 12 14
11 9 8 7 5 5 4 5 5 7 6 6 8 6 5 4 5 5 5 6 7 7 9 12 15 15 16 22 15 12 12 14 15
11 10 9 6 6 6 4 4 4 6 8 3 4 2 1 3 4 4 3 4 8 7 11 15 13 14 19 20 18 15 13 14 14
11 10 9 7 6 5 5 4 4 4 5 7 3 2 3 2 3 2 6 2 12 13 14 16 15 18 20 18 17 18 18 13 16
11 10 8 7 7 6 5 4 4 4 4 5 6 5 3 2 2 6 5 7 14 17 15 20 19 18 19 17 18 18 19 15 17
11 10 9 8 6 6 4 4 4 4 4 3 3 2 2 2 2 3 5 16 18 16 19 17 18 18 18 18 16 16 20 16 18
Wind_Direction
111 106 101 96 91 86 83 78 72 71 77 80 88 82 94 96 92 88 81 74 61 53 46 44 44 42 40 33 27 22 20 25 28
111 107 102 96 91 86 81 77 72 78 87 94 88 87 94 91 87 76 66 68 63 46 49 46 40 34 28 23 18 15 23 33 28
112 106 100 94 89 85 83 80 74 76 86 91 85 87 94 89 85 81 86 75 65 57 41 38 26 18 15 15 9 17 39 35 22
112 107 100 94 89 88 88 81 79 85 88 83 77 88 94 92 85 78 83 77 63 59 44 31 21 14 14 26 45 66 49 35 22
111 106 101 96 94 88 82 79 83 85 89 88 75 92 92 84 72 65 77 71 66 50 37 37 38 42 43 55 49 37 37 30 25
112 108 101 98 95 91 86 77 82 84 82 80 80 80 87 77 70 62 69 68 66 64 55 49 45 44 54 66 62 60 47 33 24
119 113 108 103 98 94 92 87 85 84 82 79 82 77 86 81 69 62 66 66 62 64 55 52 49 42 47 50 42 36 31 21 12
127 122 115 108 103 101 95 91 85 85 82 77 76 77 83 90 79 63 60 65 65 64 56 46 36 29 26 23 18 8 2 356 354
134 127 118 112 106 99 90 93 92 88 81 79 80 78 85 93 86 74 56 67 67 61 56 49 41 37 32 25 13 6 1 0 357
142 135 127 119 108 105 94 96 94 88 85 82 80 81 85 94 94 80 64 64 69 64 56 49 42 34 29 22 14 7 1 354 348
153 145 133 120 113 100 94 95 94 90 89 89 76 75 85 98 105 94 80 68 65 66 52 39 31 24 15 6 0 354 346 341 335
157 145 132 122 110 104 100 93 97 95 95 90 76 86 98 99 105 98 89 70 57 52 45 33 24 19 7 358 351 345 340 336 330
159 148 131 122 115 109 104 94 95 81 87 93 78 98 105 103 98 88 94 62 43 28 24 19 16 6 354 347 341 339 333 336 335
165 152 136 130 125 109 102 97 92 61 65 97 93 103 108 111 106 91 80 49 30 28 29 15 5 354 348 345 339 335 332 337 336
168 155 148 144 135 114 117 106 86 52 61 114 123 114 114 114 103 100 98 58 46 26 13 3 355 349 346 344 339 334 331 335 336
172 163 156 150 144 123 113 124 105 61 66 129 118 115 124 114 115 121 104 76 32 5 356 345 337 339 340 342 339 338 330 328 330
180 177 170 165 156 134 118 133 135 70 53 106 107 53 130 92 134 136 134 64 18 17 349 341 332 326 328 334 333 332 328 324 328
190 184 181 177 169 150 135 129 153 134 71 66 125 91 219 334 179 128 170 63 10 357 352 351 335 324 321 318 323 328 330 323 325
195 188 188 180 165 154 141 150 133 143 146 96 78 83 99 156 325 237 240 281 339 344 344 344 342 333 327 312 308 316 324 320 321
193 191 187 174 164 159 167 152 140 143 148 145 137 107 101 96 121 282 303 312 326 335 334 337 340 335 323 316 298 304 318 313 316
Height
820 820 821 821 821 821 821 821 820 820 820 820 820 819 820 821 821 822 822 823 824 824 824 824 823 823 823 822 822 821 821 820 819
820 820 821 821 821 822 822 821 821 821 821 821 822 821 821 822 823 823 823 824 825 825 826 825 825 824 824 823 823 822 822 821 820
820 821 821 821 822 822 822 823 822 822 822 823 823 823 823 823 824 825 825 826 827 827 827 826 826 825 824 824 823 823 822 821 821
820 821 821 821 822 823 823 824 824 824 824 824 824 825 825 825 825 826 826 827 828 827 827 827 826 825 825 824 824 823 823 823 822
820 821 822 823 823 824 825 825 825 825 825 826 825 826 826 827 827 827 828 828 829 829 829 828 827 826 825 825 825 825 824 824 823
821 822 824 824 824 825 825 826 826 826 826 826 826 827 827 828 828 828 829 829 829 829 829 829 828 828 827 826 826 825 825 824 824
822 823 824 825 825 825 826 826 827 827 827 827 827 827 828 829 829 829 829 830 830 830 831 830 829 829 828 828 827 826 825 824 823
822 823 824 825 825 826 826 827 827 827 828 828 828 828 829 829 830 830 830 831 831 831 831 831 830 830 829 829 828 827 826 825 823
822 823 824 825 826 826 826 827 828 828 828 829 829 829 829 830 830 831 831 831 831 832 831 831 831 830 829 829 829 828 827 825 823
822 823 825 825 826 826 827 827 828 828 829 829 829 830 830 831 831 832 832 832 832 832 833 832 831 831 831 830 829 828 827 825 824
822 823 825 825 826 827 827 828 828 829 829 829 830 830 830 831 832 833 833 833 833 833 833 833 832 832 831 830 829 828 826 824 823
823 824 825 826 826 827 828 828 829 829 829 830 830 831 831 831 832 833 834 834 834 834 833 833 833 832 832 831 829 827 825 823 822
823 824 825 826 827 827 828 829 829 829 829 830 831 831 833 833 833 834 834 834 835 834 833 833 832 832 831 830 829 827 825 822 820
823 824 825 826 827 827 828 829 829 829 830 831 831 832 834 834 835 835 835 835 835 835 834 833 832 831 830 829 828 826 824 822 819
822 823 824 825 826 827 828 829 829 830 830 831 832 833 834 835 835 835 836 836 836 835 834 833 831 830 829 828 826 824 823 821 818
822 823 824 825 826 827 828 829 829 829 830 831 833 834 835 835 836 836 837 837 835 834 834 832 830 829 828 826 824 822 821 820 817
821 822 824 825 825 826 828 829 830 830 830 831 833 836 837 835 836 836 836 836 835 834 833 831 829 828 826 824 822 820 819 817 815
821 822 823 824 825 826 827 829 830 831 832 831 833 838 838 836 835 835 835 835 834 832 831 829 828 826 823 821 820 818 816 815 813
821 822 824 824 825 826 827 829 829 830 832 832 833 834 835 837 838 835 835 833 832 831 829 828 826 823 821 819 817 816 814 813 811
821 821 823 824 825 827 829 829 829 830 832 832 833 835 835 836 837 838 833 832 830 829 828 826 824 822 819 816 815 814 812 810 808